Voltar ao catálogo

STARLINK-36034

AtivoComunicaçõesVLEO
NORAD 66609·PAYLOAD·🇺🇸 United States

Lançado Nov 22, 2025 de Cape Canaveral Space Force Station

Loading…

Próximas Passagens (próximas 24 horas)

TLE

AtualizadoSource: CelesTrak SupGP

Época: Sep 15, 2026, 03:47 UTC

1 66609C 25270X   26258.15812500 -.00027802  00000+0 -10068-2 0  2583
2 66609  43.0044  66.5389 0001790 268.8588 254.5302 15.27598208    12

Acompanhe STARLINK-36034 em tempo real com AllMySat

Download on the App Store